Index of /20260428/WXO-DD/model_rdps/10km/06/081
Name Last modified Size Description
Parent Directory -
20260428T06Z_MSC_RDPS_AbsoluteVorticity_IsbL-0250_RLatLon0.09_PT081H.grib2 2026-04-28 09:04 602K
20260428T06Z_MSC_RDPS_AbsoluteVorticity_IsbL-0500_RLatLon0.09_PT081H.grib2 2026-04-28 09:04 556K
20260428T06Z_MSC_RDPS_AbsoluteVorticity_IsbL-0700_RLatLon0.09_PT081H.grib2 2026-04-28 09:04 609K
20260428T06Z_MSC_RDPS_AbsoluteVorticity_IsbL-0850_RLatLon0.09_PT081H.grib2 2026-04-28 09:04 777K
20260428T06Z_MSC_RDPS_AirTemp_AGL-120m_RLatLon0.09_PT081H.grib2 2026-04-28 09:04 383K
20260428T06Z_MSC_RDPS_AirTemp_AGL-2m_RLatLon0.09_PT081H.grib2 2026-04-28 09:04 630K
20260428T06Z_MSC_RDPS_AirTemp_AGL-40m_RLatLon0.09_PT081H.grib2 2026-04-28 09:04 396K
20260428T06Z_MSC_RDPS_AirTemp_AGL-80m_RLatLon0.09_PT081H.grib2 2026-04-28 09:04 389K
20260428T06Z_MSC_RDPS_AirTemp_IsbL-0001_RLatLon0.09_PT081H.grib2 2026-04-28 09:04 317K
20260428T06Z_MSC_RDPS_AirTemp_IsbL-0005_RLatLon0.09_PT081H.grib2 2026-04-28 09:04 288K
20260428T06Z_MSC_RDPS_AirTemp_IsbL-0010_RLatLon0.09_PT081H.grib2 2026-04-28 09:04 298K
20260428T06Z_MSC_RDPS_AirTemp_IsbL-0020_RLatLon0.09_PT081H.grib2 2026-04-28 09:04 412K
20260428T06Z_MSC_RDPS_AirTemp_IsbL-0030_RLatLon0.09_PT081H.grib2 2026-04-28 09:04 335K
20260428T06Z_MSC_RDPS_AirTemp_IsbL-0050_RLatLon0.09_PT081H.grib2 2026-04-28 09:04 311K
20260428T06Z_MSC_RDPS_AirTemp_IsbL-0100_RLatLon0.09_PT081H.grib2 2026-04-28 09:04 417K
20260428T06Z_MSC_RDPS_AirTemp_IsbL-0150_RLatLon0.09_PT081H.grib2 2026-04-28 09:04 414K
20260428T06Z_MSC_RDPS_AirTemp_IsbL-0175_RLatLon0.09_PT081H.grib2 2026-04-28 09:04 405K
20260428T06Z_MSC_RDPS_AirTemp_IsbL-0200_RLatLon0.09_PT081H.grib2 2026-04-28 09:04 407K
20260428T06Z_MSC_RDPS_AirTemp_IsbL-0225_RLatLon0.09_PT081H.grib2 2026-04-28 09:04 409K
20260428T06Z_MSC_RDPS_AirTemp_IsbL-0250_RLatLon0.09_PT081H.grib2 2026-04-28 09:04 415K
20260428T06Z_MSC_RDPS_AirTemp_IsbL-0275_RLatLon0.09_PT081H.grib2 2026-04-28 09:04 395K
20260428T06Z_MSC_RDPS_AirTemp_IsbL-0300_RLatLon0.09_PT081H.grib2 2026-04-28 09:04 399K
20260428T06Z_MSC_RDPS_AirTemp_IsbL-0350_RLatLon0.09_PT081H.grib2 2026-04-28 09:04 414K
20260428T06Z_MSC_RDPS_AirTemp_IsbL-0400_RLatLon0.09_PT081H.grib2 2026-04-28 09:04 416K
20260428T06Z_MSC_RDPS_AirTemp_IsbL-0450_RLatLon0.09_PT081H.grib2 2026-04-28 09:04 388K
20260428T06Z_MSC_RDPS_AirTemp_IsbL-0500_RLatLon0.09_PT081H.grib2 2026-04-28 09:04 397K
20260428T06Z_MSC_RDPS_AirTemp_IsbL-0550_RLatLon0.09_PT081H.grib2 2026-04-28 09:04 414K
20260428T06Z_MSC_RDPS_AirTemp_IsbL-0600_RLatLon0.09_PT081H.grib2 2026-04-28 09:04 436K
20260428T06Z_MSC_RDPS_AirTemp_IsbL-0650_RLatLon0.09_PT081H.grib2 2026-04-28 09:04 450K
20260428T06Z_MSC_RDPS_AirTemp_IsbL-0700_RLatLon0.09_PT081H.grib2 2026-04-28 09:04 474K
20260428T06Z_MSC_RDPS_AirTemp_IsbL-0750_RLatLon0.09_PT081H.grib2 2026-04-28 09:04 398K
20260428T06Z_MSC_RDPS_AirTemp_IsbL-0800_RLatLon0.09_PT081H.grib2 2026-04-28 09:04 446K
20260428T06Z_MSC_RDPS_AirTemp_IsbL-0850_RLatLon0.09_PT081H.grib2 2026-04-28 09:04 502K
20260428T06Z_MSC_RDPS_AirTemp_IsbL-0875_RLatLon0.09_PT081H.grib2 2026-04-28 09:04 523K
20260428T06Z_MSC_RDPS_AirTemp_IsbL-0900_RLatLon0.09_PT081H.grib2 2026-04-28 09:04 531K
20260428T06Z_MSC_RDPS_AirTemp_IsbL-0925_RLatLon0.09_PT081H.grib2 2026-04-28 09:04 530K
20260428T06Z_MSC_RDPS_AirTemp_IsbL-0950_RLatLon0.09_PT081H.grib2 2026-04-28 09:04 534K
20260428T06Z_MSC_RDPS_AirTemp_IsbL-0970_RLatLon0.09_PT081H.grib2 2026-04-28 09:04 527K
20260428T06Z_MSC_RDPS_AirTemp_IsbL-0985_RLatLon0.09_PT081H.grib2 2026-04-28 09:04 519K
20260428T06Z_MSC_RDPS_AirTemp_IsbL-1000_RLatLon0.09_PT081H.grib2 2026-04-28 09:04 504K
20260428T06Z_MSC_RDPS_AirTemp_IsbL-1015_RLatLon0.09_PT081H.grib2 2026-04-28 09:04 502K
20260428T06Z_MSC_RDPS_Albedo_Sfc_RLatLon0.09_PT081H.grib2 2026-04-28 09:04 160K
20260428T06Z_MSC_RDPS_CAPE_Sfc_RLatLon0.09_PT081H.grib2 2026-04-28 09:04 1.7M
20260428T06Z_MSC_RDPS_CIN_Sfc_RLatLon0.09_PT081H.grib2 2026-04-28 09:04 1.1M
20260428T06Z_MSC_RDPS_CloudWater_EAtm_RLatLon0.09_PT081H.grib2 2026-04-28 09:04 218K
20260428T06Z_MSC_RDPS_ConvectivePrecip-Accum_Sfc_RLatLon0.09_PT081H.grib2 2026-04-28 09:04 1.3M
20260428T06Z_MSC_RDPS_DewPointDepression_AGL-2m_RLatLon0.09_PT081H.grib2 2026-04-28 09:04 413K
20260428T06Z_MSC_RDPS_DewPointDepression_IsbL-0001_RLatLon0.09_PT081H.grib2 2026-04-28 09:04 193
20260428T06Z_MSC_RDPS_DewPointDepression_IsbL-0005_RLatLon0.09_PT081H.grib2 2026-04-28 09:04 193
20260428T06Z_MSC_RDPS_DewPointDepression_IsbL-0010_RLatLon0.09_PT081H.grib2 2026-04-28 09:04 193
20260428T06Z_MSC_RDPS_DewPointDepression_IsbL-0020_RLatLon0.09_PT081H.grib2 2026-04-28 09:04 193
20260428T06Z_MSC_RDPS_DewPointDepression_IsbL-0030_RLatLon0.09_PT081H.grib2 2026-04-28 09:04 193
20260428T06Z_MSC_RDPS_DewPointDepression_IsbL-0050_RLatLon0.09_PT081H.grib2 2026-04-28 09:04 80K
20260428T06Z_MSC_RDPS_DewPointDepression_IsbL-0100_RLatLon0.09_PT081H.grib2 2026-04-28 09:04 123K
20260428T06Z_MSC_RDPS_DewPointDepression_IsbL-0150_RLatLon0.09_PT081H.grib2 2026-04-28 09:04 143K
20260428T06Z_MSC_RDPS_DewPointDepression_IsbL-0175_RLatLon0.09_PT081H.grib2 2026-04-28 09:04 179K
20260428T06Z_MSC_RDPS_DewPointDepression_IsbL-0200_RLatLon0.09_PT081H.grib2 2026-04-28 09:04 216K
20260428T06Z_MSC_RDPS_DewPointDepression_IsbL-0225_RLatLon0.09_PT081H.grib2 2026-04-28 09:04 253K
20260428T06Z_MSC_RDPS_DewPointDepression_IsbL-0250_RLatLon0.09_PT081H.grib2 2026-04-28 09:04 292K
20260428T06Z_MSC_RDPS_DewPointDepression_IsbL-0275_RLatLon0.09_PT081H.grib2 2026-04-28 09:04 299K
20260428T06Z_MSC_RDPS_DewPointDepression_IsbL-0300_RLatLon0.09_PT081H.grib2 2026-04-28 09:04 320K
20260428T06Z_MSC_RDPS_DewPointDepression_IsbL-0350_RLatLon0.09_PT081H.grib2 2026-04-28 09:04 324K
20260428T06Z_MSC_RDPS_DewPointDepression_IsbL-0400_RLatLon0.09_PT081H.grib2 2026-04-28 09:04 335K
20260428T06Z_MSC_RDPS_DewPointDepression_IsbL-0450_RLatLon0.09_PT081H.grib2 2026-04-28 09:04 343K
20260428T06Z_MSC_RDPS_DewPointDepression_IsbL-0500_RLatLon0.09_PT081H.grib2 2026-04-28 09:04 348K
20260428T06Z_MSC_RDPS_DewPointDepression_IsbL-0550_RLatLon0.09_PT081H.grib2 2026-04-28 09:04 358K
20260428T06Z_MSC_RDPS_DewPointDepression_IsbL-0600_RLatLon0.09_PT081H.grib2 2026-04-28 09:04 368K
20260428T06Z_MSC_RDPS_DewPointDepression_IsbL-0650_RLatLon0.09_PT081H.grib2 2026-04-28 09:04 372K
20260428T06Z_MSC_RDPS_DewPointDepression_IsbL-0700_RLatLon0.09_PT081H.grib2 2026-04-28 09:04 380K
20260428T06Z_MSC_RDPS_DewPointDepression_IsbL-0750_RLatLon0.09_PT081H.grib2 2026-04-28 09:04 397K
20260428T06Z_MSC_RDPS_DewPointDepression_IsbL-0800_RLatLon0.09_PT081H.grib2 2026-04-28 09:04 433K
20260428T06Z_MSC_RDPS_DewPointDepression_IsbL-0850_RLatLon0.09_PT081H.grib2 2026-04-28 09:04 474K
20260428T06Z_MSC_RDPS_DewPointDepression_IsbL-0875_RLatLon0.09_PT081H.grib2 2026-04-28 09:04 478K
20260428T06Z_MSC_RDPS_DewPointDepression_IsbL-0900_RLatLon0.09_PT081H.grib2 2026-04-28 09:04 466K
20260428T06Z_MSC_RDPS_DewPointDepression_IsbL-0925_RLatLon0.09_PT081H.grib2 2026-04-28 09:04 451K
20260428T06Z_MSC_RDPS_DewPointDepression_IsbL-0950_RLatLon0.09_PT081H.grib2 2026-04-28 09:04 446K
20260428T06Z_MSC_RDPS_DewPointDepression_IsbL-0970_RLatLon0.09_PT081H.grib2 2026-04-28 09:04 440K
20260428T06Z_MSC_RDPS_DewPointDepression_IsbL-0985_RLatLon0.09_PT081H.grib2 2026-04-28 09:04 437K
20260428T06Z_MSC_RDPS_DewPointDepression_IsbL-1000_RLatLon0.09_PT081H.grib2 2026-04-28 09:04 432K
20260428T06Z_MSC_RDPS_DewPointDepression_IsbL-1015_RLatLon0.09_PT081H.grib2 2026-04-28 09:04 424K
20260428T06Z_MSC_RDPS_DewPoint_AGL-2m_RLatLon0.09_PT081H.grib2 2026-04-28 09:04 399K
20260428T06Z_MSC_RDPS_DownwardLongwaveRadiationFlux-Accum_Sfc_RLatLon0.09_PT081H.grib2 2026-04-28 09:04 435K
20260428T06Z_MSC_RDPS_DownwardShortwaveRadiationFlux-Accum_NTAtm_RLatLon0.09_PT081H.grib2 2026-04-28 09:04 101K
20260428T06Z_MSC_RDPS_DownwardShortwaveRadiationFlux-Accum_Sfc_RLatLon0.09_PT081H.grib2 2026-04-28 09:04 630K
20260428T06Z_MSC_RDPS_FreezingRain-Accum1h_Sfc_RLatLon0.09_PT081H.grib2 2026-04-28 09:04 30K
20260428T06Z_MSC_RDPS_FreezingRain-Accum3h_Sfc_RLatLon0.09_PT081H.grib2 2026-04-28 09:04 46K
20260428T06Z_MSC_RDPS_FreezingRain-Accum_Sfc_RLatLon0.09_PT081H.grib2 2026-04-28 09:04 248K
20260428T06Z_MSC_RDPS_GeopotentialHeight_IsbL-0001_RLatLon0.09_PT081H.grib2 2026-04-28 09:04 315K
20260428T06Z_MSC_RDPS_GeopotentialHeight_IsbL-0005_RLatLon0.09_PT081H.grib2 2026-04-28 09:04 301K
20260428T06Z_MSC_RDPS_GeopotentialHeight_IsbL-0010_RLatLon0.09_PT081H.grib2 2026-04-28 09:04 302K
20260428T06Z_MSC_RDPS_GeopotentialHeight_IsbL-0020_RLatLon0.09_PT081H.grib2 2026-04-28 09:04 302K
20260428T06Z_MSC_RDPS_GeopotentialHeight_IsbL-0030_RLatLon0.09_PT081H.grib2 2026-04-28 09:04 302K
20260428T06Z_MSC_RDPS_GeopotentialHeight_IsbL-0050_RLatLon0.09_PT081H.grib2 2026-04-28 09:04 304K
20260428T06Z_MSC_RDPS_GeopotentialHeight_IsbL-0100_RLatLon0.09_PT081H.grib2 2026-04-28 09:04 279K
20260428T06Z_MSC_RDPS_GeopotentialHeight_IsbL-0150_RLatLon0.09_PT081H.grib2 2026-04-28 09:04 224K
20260428T06Z_MSC_RDPS_GeopotentialHeight_IsbL-0175_RLatLon0.09_PT081H.grib2 2026-04-28 09:04 227K
20260428T06Z_MSC_RDPS_GeopotentialHeight_IsbL-0200_RLatLon0.09_PT081H.grib2 2026-04-28 09:04 260K
20260428T06Z_MSC_RDPS_GeopotentialHeight_IsbL-0225_RLatLon0.09_PT081H.grib2 2026-04-28 09:04 262K
20260428T06Z_MSC_RDPS_GeopotentialHeight_IsbL-0250_RLatLon0.09_PT081H.grib2 2026-04-28 09:04 262K
20260428T06Z_MSC_RDPS_GeopotentialHeight_IsbL-0275_RLatLon0.09_PT081H.grib2 2026-04-28 09:04 262K
20260428T06Z_MSC_RDPS_GeopotentialHeight_IsbL-0300_RLatLon0.09_PT081H.grib2 2026-04-28 09:04 231K
20260428T06Z_MSC_RDPS_GeopotentialHeight_IsbL-0350_RLatLon0.09_PT081H.grib2 2026-04-28 09:04 228K
20260428T06Z_MSC_RDPS_GeopotentialHeight_IsbL-0400_RLatLon0.09_PT081H.grib2 2026-04-28 09:04 224K
20260428T06Z_MSC_RDPS_GeopotentialHeight_IsbL-0450_RLatLon0.09_PT081H.grib2 2026-04-28 09:04 293K
20260428T06Z_MSC_RDPS_GeopotentialHeight_IsbL-0500_RLatLon0.09_PT081H.grib2 2026-04-28 09:04 288K
20260428T06Z_MSC_RDPS_GeopotentialHeight_IsbL-0550_RLatLon0.09_PT081H.grib2 2026-04-28 09:04 284K
20260428T06Z_MSC_RDPS_GeopotentialHeight_IsbL-0600_RLatLon0.09_PT081H.grib2 2026-04-28 09:04 280K
20260428T06Z_MSC_RDPS_GeopotentialHeight_IsbL-0650_RLatLon0.09_PT081H.grib2 2026-04-28 09:04 251K
20260428T06Z_MSC_RDPS_GeopotentialHeight_IsbL-0700_RLatLon0.09_PT081H.grib2 2026-04-28 09:04 331K
20260428T06Z_MSC_RDPS_GeopotentialHeight_IsbL-0750_RLatLon0.09_PT081H.grib2 2026-04-28 09:04 333K
20260428T06Z_MSC_RDPS_GeopotentialHeight_IsbL-0800_RLatLon0.09_PT081H.grib2 2026-04-28 09:04 342K
20260428T06Z_MSC_RDPS_GeopotentialHeight_IsbL-0850_RLatLon0.09_PT081H.grib2 2026-04-28 09:04 354K
20260428T06Z_MSC_RDPS_GeopotentialHeight_IsbL-0875_RLatLon0.09_PT081H.grib2 2026-04-28 09:04 356K
20260428T06Z_MSC_RDPS_GeopotentialHeight_IsbL-0900_RLatLon0.09_PT081H.grib2 2026-04-28 09:04 361K
20260428T06Z_MSC_RDPS_GeopotentialHeight_IsbL-0925_RLatLon0.09_PT081H.grib2 2026-04-28 09:04 397K
20260428T06Z_MSC_RDPS_GeopotentialHeight_IsbL-0950_RLatLon0.09_PT081H.grib2 2026-04-28 09:04 401K
20260428T06Z_MSC_RDPS_GeopotentialHeight_IsbL-0970_RLatLon0.09_PT081H.grib2 2026-04-28 09:04 407K
20260428T06Z_MSC_RDPS_GeopotentialHeight_IsbL-0985_RLatLon0.09_PT081H.grib2 2026-04-28 09:04 417K
20260428T06Z_MSC_RDPS_GeopotentialHeight_IsbL-1000_RLatLon0.09_PT081H.grib2 2026-04-28 09:04 431K
20260428T06Z_MSC_RDPS_GeopotentialHeight_IsbL-1015_RLatLon0.09_PT081H.grib2 2026-04-28 09:04 448K
20260428T06Z_MSC_RDPS_Humidex_Sfc_RLatLon0.09_PT081H.grib2 2026-04-28 09:04 2.4M
20260428T06Z_MSC_RDPS_IcePellets-Accum1h_Sfc_RLatLon0.09_PT081H.grib2 2026-04-28 09:04 5.6K
20260428T06Z_MSC_RDPS_IcePellets-Accum3h_Sfc_RLatLon0.09_PT081H.grib2 2026-04-28 09:04 8.8K
20260428T06Z_MSC_RDPS_IcePellets-Accum_Sfc_RLatLon0.09_PT081H.grib2 2026-04-28 09:04 38K
20260428T06Z_MSC_RDPS_KIndex_Sfc_RLatLon0.09_PT081H.grib2 2026-04-28 09:04 2.5M
20260428T06Z_MSC_RDPS_LatentHeatNetFlux_Sfc_RLatLon0.09_PT081H.grib2 2026-04-28 09:04 376K
20260428T06Z_MSC_RDPS_LiftedIndex-MU-VT_IsbL-0500_RLatLon0.09_PT081H.grib2 2026-04-28 09:04 2.4M
20260428T06Z_MSC_RDPS_NetLongwaveRadiationFlux-Accum_Sfc_RLatLon0.09_PT081H.grib2 2026-04-28 09:04 481K
20260428T06Z_MSC_RDPS_NetShortwaveRadiationFlux-Accum_Sfc_RLatLon0.09_PT081H.grib2 2026-04-28 09:04 632K
20260428T06Z_MSC_RDPS_PlanetaryBoundaryLayerHeight_Sfc_RLatLon0.09_PT081H.grib2 2026-04-28 09:04 1.2M
20260428T06Z_MSC_RDPS_Precip-Accum1h_Sfc_RLatLon0.09_PT081H.grib2 2026-04-28 09:04 1.2M
20260428T06Z_MSC_RDPS_Precip-Accum3h_Sfc_RLatLon0.09_PT081H.grib2 2026-04-28 09:04 1.3M
20260428T06Z_MSC_RDPS_Precip-Accum_Sfc_RLatLon0.09_PT081H.grib2 2026-04-28 09:04 2.2M
20260428T06Z_MSC_RDPS_PrecipRate_Sfc_RLatLon0.09_PT081H.grib2 2026-04-28 09:04 181K
20260428T06Z_MSC_RDPS_PrecipType-Instant_Sfc_RLatLon0.09_PT081H.grib2 2026-04-28 09:04 551K
20260428T06Z_MSC_RDPS_Pressure-Trend3h_Sfc_RLatLon0.09_PT081H.grib2 2026-04-28 09:04 1.2M
20260428T06Z_MSC_RDPS_Pressure_MSL_RLatLon0.09_PT081H.grib2 2026-04-28 09:04 326K
20260428T06Z_MSC_RDPS_Pressure_PVU-1.5_RLatLon0.09_PT081H.grib2 2026-04-28 09:04 2.5M
20260428T06Z_MSC_RDPS_Pressure_PVU-1_RLatLon0.09_PT081H.grib2 2026-04-28 09:04 2.4M
20260428T06Z_MSC_RDPS_Pressure_PVU-2_RLatLon0.09_PT081H.grib2 2026-04-28 09:04 2.4M
20260428T06Z_MSC_RDPS_Pressure_Sfc_RLatLon0.09_PT081H.grib2 2026-04-28 09:04 500K
20260428T06Z_MSC_RDPS_RadiativeTemp_Sfc_RLatLon0.09_PT081H.grib2 2026-04-28 09:04 322K
20260428T06Z_MSC_RDPS_Rain-Accum1h_Sfc_RLatLon0.09_PT081H.grib2 2026-04-28 09:04 585K
20260428T06Z_MSC_RDPS_Rain-Accum3h_Sfc_RLatLon0.09_PT081H.grib2 2026-04-28 09:04 671K
20260428T06Z_MSC_RDPS_Rain-Accum_Sfc_RLatLon0.09_PT081H.grib2 2026-04-28 09:04 1.8M
20260428T06Z_MSC_RDPS_RelativeHumidity_AGL-2m_RLatLon0.09_PT081H.grib2 2026-04-28 09:04 1.0M
20260428T06Z_MSC_RDPS_RelativeHumidity_IsbL-0010_RLatLon0.09_PT081H.grib2 2026-04-28 09:04 628K
20260428T06Z_MSC_RDPS_RelativeHumidity_IsbL-0020_RLatLon0.09_PT081H.grib2 2026-04-28 09:04 671K
20260428T06Z_MSC_RDPS_RelativeHumidity_IsbL-0030_RLatLon0.09_PT081H.grib2 2026-04-28 09:04 602K
20260428T06Z_MSC_RDPS_RelativeHumidity_IsbL-0050_RLatLon0.09_PT081H.grib2 2026-04-28 09:04 361K
20260428T06Z_MSC_RDPS_RelativeHumidity_IsbL-0100_RLatLon0.09_PT081H.grib2 2026-04-28 09:04 270K
20260428T06Z_MSC_RDPS_RelativeHumidity_IsbL-0150_RLatLon0.09_PT081H.grib2 2026-04-28 09:04 391K
20260428T06Z_MSC_RDPS_RelativeHumidity_IsbL-0175_RLatLon0.09_PT081H.grib2 2026-04-28 09:04 456K
20260428T06Z_MSC_RDPS_RelativeHumidity_IsbL-0200_RLatLon0.09_PT081H.grib2 2026-04-28 09:04 544K
20260428T06Z_MSC_RDPS_RelativeHumidity_IsbL-0225_RLatLon0.09_PT081H.grib2 2026-04-28 09:04 613K
20260428T06Z_MSC_RDPS_RelativeHumidity_IsbL-0250_RLatLon0.09_PT081H.grib2 2026-04-28 09:04 685K
20260428T06Z_MSC_RDPS_RelativeHumidity_IsbL-0275_RLatLon0.09_PT081H.grib2 2026-04-28 09:04 711K
20260428T06Z_MSC_RDPS_RelativeHumidity_IsbL-0300_RLatLon0.09_PT081H.grib2 2026-04-28 09:04 751K
20260428T06Z_MSC_RDPS_RelativeHumidity_IsbL-0350_RLatLon0.09_PT081H.grib2 2026-04-28 09:04 768K
20260428T06Z_MSC_RDPS_RelativeHumidity_IsbL-0400_RLatLon0.09_PT081H.grib2 2026-04-28 09:04 784K
20260428T06Z_MSC_RDPS_RelativeHumidity_IsbL-0450_RLatLon0.09_PT081H.grib2 2026-04-28 09:04 790K
20260428T06Z_MSC_RDPS_RelativeHumidity_IsbL-0500_RLatLon0.09_PT081H.grib2 2026-04-28 09:04 795K
20260428T06Z_MSC_RDPS_RelativeHumidity_IsbL-0550_RLatLon0.09_PT081H.grib2 2026-04-28 09:04 810K
20260428T06Z_MSC_RDPS_RelativeHumidity_IsbL-0600_RLatLon0.09_PT081H.grib2 2026-04-28 09:04 829K
20260428T06Z_MSC_RDPS_RelativeHumidity_IsbL-0650_RLatLon0.09_PT081H.grib2 2026-04-28 09:04 841K
20260428T06Z_MSC_RDPS_RelativeHumidity_IsbL-0700_RLatLon0.09_PT081H.grib2 2026-04-28 09:04 871K
20260428T06Z_MSC_RDPS_RelativeHumidity_IsbL-0750_RLatLon0.09_PT081H.grib2 2026-04-28 09:04 909K
20260428T06Z_MSC_RDPS_RelativeHumidity_IsbL-0800_RLatLon0.09_PT081H.grib2 2026-04-28 09:04 1.0M
20260428T06Z_MSC_RDPS_RelativeHumidity_IsbL-0850_RLatLon0.09_PT081H.grib2 2026-04-28 09:04 1.0M
20260428T06Z_MSC_RDPS_RelativeHumidity_IsbL-0875_RLatLon0.09_PT081H.grib2 2026-04-28 09:04 1.1M
20260428T06Z_MSC_RDPS_RelativeHumidity_IsbL-0900_RLatLon0.09_PT081H.grib2 2026-04-28 09:04 1.1M
20260428T06Z_MSC_RDPS_RelativeHumidity_IsbL-0925_RLatLon0.09_PT081H.grib2 2026-04-28 09:04 1.1M
20260428T06Z_MSC_RDPS_RelativeHumidity_IsbL-0950_RLatLon0.09_PT081H.grib2 2026-04-28 09:04 1.1M
20260428T06Z_MSC_RDPS_RelativeHumidity_IsbL-0970_RLatLon0.09_PT081H.grib2 2026-04-28 09:04 1.1M
20260428T06Z_MSC_RDPS_RelativeHumidity_IsbL-0985_RLatLon0.09_PT081H.grib2 2026-04-28 09:04 1.0M
20260428T06Z_MSC_RDPS_RelativeHumidity_IsbL-1000_RLatLon0.09_PT081H.grib2 2026-04-28 09:04 1.0M
20260428T06Z_MSC_RDPS_RelativeHumidity_IsbL-1015_RLatLon0.09_PT081H.grib2 2026-04-28 09:04 1.0M
20260428T06Z_MSC_RDPS_Runoff-Accum_Sfc_RLatLon0.09_PT081H.grib2 2026-04-28 09:04 67K
20260428T06Z_MSC_RDPS_SWEATIndex_Sfc_RLatLon0.09_PT081H.grib2 2026-04-28 09:04 2.4M
20260428T06Z_MSC_RDPS_SeeingIndex_EAtm_RLatLon0.09_PT081H.grib2 2026-04-28 09:04 1.0M
20260428T06Z_MSC_RDPS_SensibleHeatNetFlux_Sfc_RLatLon0.09_PT081H.grib2 2026-04-28 09:04 352K
20260428T06Z_MSC_RDPS_ShowalterIndex_IsbL-0500_RLatLon0.09_PT081H.grib2 2026-04-28 09:04 2.6M
20260428T06Z_MSC_RDPS_SkyTransparencyIndex_EAtm_RLatLon0.09_PT081H.grib2 2026-04-28 09:04 707K
20260428T06Z_MSC_RDPS_Snow-Accum1h_Sfc_RLatLon0.09_PT081H.grib2 2026-04-28 09:04 530K
20260428T06Z_MSC_RDPS_Snow-Accum3h_Sfc_RLatLon0.09_PT081H.grib2 2026-04-28 09:04 491K
20260428T06Z_MSC_RDPS_Snow-Accum_Sfc_RLatLon0.09_PT081H.grib2 2026-04-28 09:04 829K
20260428T06Z_MSC_RDPS_SnowDensity_Sfc_RLatLon0.09_PT081H.grib2 2026-04-28 09:04 184K
20260428T06Z_MSC_RDPS_SnowDepth_Sfc_RLatLon0.09_PT081H.grib2 2026-04-28 09:04 682K
20260428T06Z_MSC_RDPS_SoilTemp_DBS-0to10cm_RLatLon0.09_PT081H.grib2 2026-04-28 09:04 242K
20260428T06Z_MSC_RDPS_SoilTemp_Sfc_RLatLon0.09_PT081H.grib2 2026-04-28 09:04 290K
20260428T06Z_MSC_RDPS_SoilVolumetricIceContent_Sfc_RLatLon0.09_PT081H.grib2 2026-04-28 09:04 163K
20260428T06Z_MSC_RDPS_SoilVolumetricWaterContent_DBS-0to10cm_RLatLon0.09_PT081H.grib2 2026-04-28 09:04 270K
20260428T06Z_MSC_RDPS_SoilVolumetricWaterContent_DBS-0to1cm_RLatLon0.09_PT081H.grib2 2026-04-28 09:04 340K
20260428T06Z_MSC_RDPS_SpecificHumidity_AGL-120m_RLatLon0.09_PT081H.grib2 2026-04-28 09:04 495K
20260428T06Z_MSC_RDPS_SpecificHumidity_AGL-2m_RLatLon0.09_PT081H.grib2 2026-04-28 09:04 663K
20260428T06Z_MSC_RDPS_SpecificHumidity_AGL-40m_RLatLon0.09_PT081H.grib2 2026-04-28 09:04 500K
20260428T06Z_MSC_RDPS_SpecificHumidity_AGL-80m_RLatLon0.09_PT081H.grib2 2026-04-28 09:04 497K
20260428T06Z_MSC_RDPS_SpecificHumidity_IsbL-0001_RLatLon0.09_PT081H.grib2 2026-04-28 09:04 365K
20260428T06Z_MSC_RDPS_SpecificHumidity_IsbL-0005_RLatLon0.09_PT081H.grib2 2026-04-28 09:04 353K
20260428T06Z_MSC_RDPS_SpecificHumidity_IsbL-0010_RLatLon0.09_PT081H.grib2 2026-04-28 09:04 386K
20260428T06Z_MSC_RDPS_SpecificHumidity_IsbL-0020_RLatLon0.09_PT081H.grib2 2026-04-28 09:04 371K
20260428T06Z_MSC_RDPS_SpecificHumidity_IsbL-0030_RLatLon0.09_PT081H.grib2 2026-04-28 09:04 354K
20260428T06Z_MSC_RDPS_SpecificHumidity_IsbL-0050_RLatLon0.09_PT081H.grib2 2026-04-28 09:04 431K
20260428T06Z_MSC_RDPS_SpecificHumidity_IsbL-0100_RLatLon0.09_PT081H.grib2 2026-04-28 09:04 522K
20260428T06Z_MSC_RDPS_SpecificHumidity_IsbL-0150_RLatLon0.09_PT081H.grib2 2026-04-28 09:04 457K
20260428T06Z_MSC_RDPS_SpecificHumidity_IsbL-0175_RLatLon0.09_PT081H.grib2 2026-04-28 09:04 414K
20260428T06Z_MSC_RDPS_SpecificHumidity_IsbL-0200_RLatLon0.09_PT081H.grib2 2026-04-28 09:04 437K
20260428T06Z_MSC_RDPS_SpecificHumidity_IsbL-0225_RLatLon0.09_PT081H.grib2 2026-04-28 09:04 440K
20260428T06Z_MSC_RDPS_SpecificHumidity_IsbL-0250_RLatLon0.09_PT081H.grib2 2026-04-28 09:04 548K
20260428T06Z_MSC_RDPS_SpecificHumidity_IsbL-0275_RLatLon0.09_PT081H.grib2 2026-04-28 09:04 465K
20260428T06Z_MSC_RDPS_SpecificHumidity_IsbL-0300_RLatLon0.09_PT081H.grib2 2026-04-28 09:04 562K
20260428T06Z_MSC_RDPS_SpecificHumidity_IsbL-0350_RLatLon0.09_PT081H.grib2 2026-04-28 09:04 528K
20260428T06Z_MSC_RDPS_SpecificHumidity_IsbL-0400_RLatLon0.09_PT081H.grib2 2026-04-28 09:04 512K
20260428T06Z_MSC_RDPS_SpecificHumidity_IsbL-0450_RLatLon0.09_PT081H.grib2 2026-04-28 09:04 564K
20260428T06Z_MSC_RDPS_SpecificHumidity_IsbL-0500_RLatLon0.09_PT081H.grib2 2026-04-28 09:04 499K
20260428T06Z_MSC_RDPS_SpecificHumidity_IsbL-0550_RLatLon0.09_PT081H.grib2 2026-04-28 09:04 570K
20260428T06Z_MSC_RDPS_SpecificHumidity_IsbL-0600_RLatLon0.09_PT081H.grib2 2026-04-28 09:04 622K
20260428T06Z_MSC_RDPS_SpecificHumidity_IsbL-0650_RLatLon0.09_PT081H.grib2 2026-04-28 09:04 538K
20260428T06Z_MSC_RDPS_SpecificHumidity_IsbL-0700_RLatLon0.09_PT081H.grib2 2026-04-28 09:04 578K
20260428T06Z_MSC_RDPS_SpecificHumidity_IsbL-0750_RLatLon0.09_PT081H.grib2 2026-04-28 09:04 632K
20260428T06Z_MSC_RDPS_SpecificHumidity_IsbL-0800_RLatLon0.09_PT081H.grib2 2026-04-28 09:04 719K
20260428T06Z_MSC_RDPS_SpecificHumidity_IsbL-0850_RLatLon0.09_PT081H.grib2 2026-04-28 09:04 804K
20260428T06Z_MSC_RDPS_SpecificHumidity_IsbL-0875_RLatLon0.09_PT081H.grib2 2026-04-28 09:04 833K
20260428T06Z_MSC_RDPS_SpecificHumidity_IsbL-0900_RLatLon0.09_PT081H.grib2 2026-04-28 09:04 844K
20260428T06Z_MSC_RDPS_SpecificHumidity_IsbL-0925_RLatLon0.09_PT081H.grib2 2026-04-28 09:04 845K
20260428T06Z_MSC_RDPS_SpecificHumidity_IsbL-0950_RLatLon0.09_PT081H.grib2 2026-04-28 09:04 707K
20260428T06Z_MSC_RDPS_SpecificHumidity_IsbL-0970_RLatLon0.09_PT081H.grib2 2026-04-28 09:04 698K
20260428T06Z_MSC_RDPS_SpecificHumidity_IsbL-0985_RLatLon0.09_PT081H.grib2 2026-04-28 09:04 691K
20260428T06Z_MSC_RDPS_SpecificHumidity_IsbL-1000_RLatLon0.09_PT081H.grib2 2026-04-28 09:04 684K
20260428T06Z_MSC_RDPS_SpecificHumidity_IsbL-1015_RLatLon0.09_PT081H.grib2 2026-04-28 09:04 673K
20260428T06Z_MSC_RDPS_SpecificHumidity_Sfc_RLatLon0.09_PT081H.grib2 2026-04-28 09:04 316K
20260428T06Z_MSC_RDPS_StormRelativeHelicity_EtaL-10000_RLatLon0.09_PT081H.grib2 2026-04-28 09:04 1.1M
20260428T06Z_MSC_RDPS_StormSeverityIndex_EtaL-10000_RLatLon0.09_PT081H.grib2 2026-04-28 09:04 1.2M
20260428T06Z_MSC_RDPS_Thickness_IsbL-0850to0700_RLatLon0.09_PT081H.grib2 2026-04-28 09:04 175K
20260428T06Z_MSC_RDPS_Thickness_IsbL-1000to0500_RLatLon0.09_PT081H.grib2 2026-04-28 09:04 197K
20260428T06Z_MSC_RDPS_Thickness_IsbL-1000to0850_RLatLon0.09_PT081H.grib2 2026-04-28 09:04 263K
20260428T06Z_MSC_RDPS_TotalCloudCover_Sfc_RLatLon0.09_PT081H.grib2 2026-04-28 09:04 648K
20260428T06Z_MSC_RDPS_TotalTotalsIndex_Sfc_RLatLon0.09_PT081H.grib2 2026-04-28 09:04 2.4M
20260428T06Z_MSC_RDPS_UVIndex-ClearSky_Sfc_RLatLon0.09_PT081H.grib2 2026-04-28 09:04 182K
20260428T06Z_MSC_RDPS_UVIndex_Sfc_RLatLon0.09_PT081H.grib2 2026-04-28 09:04 414K
20260428T06Z_MSC_RDPS_UpwardLongwaveRadiationFlux_NTAtm_RLatLon0.09_PT081H.grib2 2026-04-28 09:04 481K
20260428T06Z_MSC_RDPS_UpwardShortwaveRadiationFlux_NTAtm_RLatLon0.09_PT081H.grib2 2026-04-28 09:04 461K
20260428T06Z_MSC_RDPS_VerticalVelocity_IsbL-0250_RLatLon0.09_PT081H.grib2 2026-04-28 09:04 540K
20260428T06Z_MSC_RDPS_VerticalVelocity_IsbL-0500_RLatLon0.09_PT081H.grib2 2026-04-28 09:04 534K
20260428T06Z_MSC_RDPS_VerticalVelocity_IsbL-0700_RLatLon0.09_PT081H.grib2 2026-04-28 09:04 582K
20260428T06Z_MSC_RDPS_VerticalVelocity_IsbL-0850_RLatLon0.09_PT081H.grib2 2026-04-28 09:04 682K
20260428T06Z_MSC_RDPS_VerticalWindShear_EtaL-6500_RLatLon0.09_PT081H.grib2 2026-04-28 09:04 1.2M
20260428T06Z_MSC_RDPS_WindChill_Sfc_RLatLon0.09_PT081H.grib2 2026-04-28 09:04 1.2M
20260428T06Z_MSC_RDPS_WindDir_AGL-10m_RLatLon0.09_PT081H.grib2 2026-04-28 09:04 965K
20260428T06Z_MSC_RDPS_WindDir_AGL-120m_RLatLon0.09_PT081H.grib2 2026-04-28 09:04 610K
20260428T06Z_MSC_RDPS_WindDir_AGL-40m_RLatLon0.09_PT081H.grib2 2026-04-28 09:04 633K
20260428T06Z_MSC_RDPS_WindDir_AGL-80m_RLatLon0.09_PT081H.grib2 2026-04-28 09:04 619K
20260428T06Z_MSC_RDPS_WindDir_IsbL-0001_RLatLon0.09_PT081H.grib2 2026-04-28 09:04 308K
20260428T06Z_MSC_RDPS_WindDir_IsbL-0005_RLatLon0.09_PT081H.grib2 2026-04-28 09:04 380K
20260428T06Z_MSC_RDPS_WindDir_IsbL-0010_RLatLon0.09_PT081H.grib2 2026-04-28 09:04 380K
20260428T06Z_MSC_RDPS_WindDir_IsbL-0020_RLatLon0.09_PT081H.grib2 2026-04-28 09:04 415K
20260428T06Z_MSC_RDPS_WindDir_IsbL-0030_RLatLon0.09_PT081H.grib2 2026-04-28 09:04 417K
20260428T06Z_MSC_RDPS_WindDir_IsbL-0050_RLatLon0.09_PT081H.grib2 2026-04-28 09:04 425K
20260428T06Z_MSC_RDPS_WindDir_IsbL-0100_RLatLon0.09_PT081H.grib2 2026-04-28 09:04 419K
20260428T06Z_MSC_RDPS_WindDir_IsbL-0150_RLatLon0.09_PT081H.grib2 2026-04-28 09:04 414K
20260428T06Z_MSC_RDPS_WindDir_IsbL-0175_RLatLon0.09_PT081H.grib2 2026-04-28 09:04 432K
20260428T06Z_MSC_RDPS_WindDir_IsbL-0200_RLatLon0.09_PT081H.grib2 2026-04-28 09:04 445K
20260428T06Z_MSC_RDPS_WindDir_IsbL-0225_RLatLon0.09_PT081H.grib2 2026-04-28 09:04 449K
20260428T06Z_MSC_RDPS_WindDir_IsbL-0250_RLatLon0.09_PT081H.grib2 2026-04-28 09:04 446K
20260428T06Z_MSC_RDPS_WindDir_IsbL-0275_RLatLon0.09_PT081H.grib2 2026-04-28 09:04 470K
20260428T06Z_MSC_RDPS_WindDir_IsbL-0300_RLatLon0.09_PT081H.grib2 2026-04-28 09:04 469K
20260428T06Z_MSC_RDPS_WindDir_IsbL-0350_RLatLon0.09_PT081H.grib2 2026-04-28 09:04 489K
20260428T06Z_MSC_RDPS_WindDir_IsbL-0400_RLatLon0.09_PT081H.grib2 2026-04-28 09:04 504K
20260428T06Z_MSC_RDPS_WindDir_IsbL-0450_RLatLon0.09_PT081H.grib2 2026-04-28 09:04 514K
20260428T06Z_MSC_RDPS_WindDir_IsbL-0500_RLatLon0.09_PT081H.grib2 2026-04-28 09:04 527K
20260428T06Z_MSC_RDPS_WindDir_IsbL-0550_RLatLon0.09_PT081H.grib2 2026-04-28 09:04 543K
20260428T06Z_MSC_RDPS_WindDir_IsbL-0600_RLatLon0.09_PT081H.grib2 2026-04-28 09:04 569K
20260428T06Z_MSC_RDPS_WindDir_IsbL-0650_RLatLon0.09_PT081H.grib2 2026-04-28 09:04 605K
20260428T06Z_MSC_RDPS_WindDir_IsbL-0700_RLatLon0.09_PT081H.grib2 2026-04-28 09:04 653K
20260428T06Z_MSC_RDPS_WindDir_IsbL-0750_RLatLon0.09_PT081H.grib2 2026-04-28 09:04 702K
20260428T06Z_MSC_RDPS_WindDir_IsbL-0800_RLatLon0.09_PT081H.grib2 2026-04-28 09:04 765K
20260428T06Z_MSC_RDPS_WindDir_IsbL-0850_RLatLon0.09_PT081H.grib2 2026-04-28 09:04 847K
20260428T06Z_MSC_RDPS_WindDir_IsbL-0875_RLatLon0.09_PT081H.grib2 2026-04-28 09:04 880K
20260428T06Z_MSC_RDPS_WindDir_IsbL-0900_RLatLon0.09_PT081H.grib2 2026-04-28 09:04 896K
20260428T06Z_MSC_RDPS_WindDir_IsbL-0925_RLatLon0.09_PT081H.grib2 2026-04-28 09:04 905K
20260428T06Z_MSC_RDPS_WindDir_IsbL-0950_RLatLon0.09_PT081H.grib2 2026-04-28 09:04 909K
20260428T06Z_MSC_RDPS_WindDir_IsbL-0970_RLatLon0.09_PT081H.grib2 2026-04-28 09:04 918K
20260428T06Z_MSC_RDPS_WindDir_IsbL-0985_RLatLon0.09_PT081H.grib2 2026-04-28 09:04 927K
20260428T06Z_MSC_RDPS_WindDir_IsbL-1000_RLatLon0.09_PT081H.grib2 2026-04-28 09:04 940K
20260428T06Z_MSC_RDPS_WindDir_IsbL-1015_RLatLon0.09_PT081H.grib2 2026-04-28 09:04 956K
20260428T06Z_MSC_RDPS_WindGust-Max_AGL-10m_RLatLon0.09_PT081H.grib2 2026-04-28 09:04 1.0M
20260428T06Z_MSC_RDPS_WindGust-Min_AGL-10m_RLatLon0.09_PT081H.grib2 2026-04-28 09:04 1.0M
20260428T06Z_MSC_RDPS_WindGust_AGL-10m_RLatLon0.09_PT081H.grib2 2026-04-28 09:04 1.0M
20260428T06Z_MSC_RDPS_WindSpeed_AGL-10m_RLatLon0.09_PT081H.grib2 2026-04-28 09:04 838K
20260428T06Z_MSC_RDPS_WindSpeed_AGL-120m_RLatLon0.09_PT081H.grib2 2026-04-28 09:04 539K
20260428T06Z_MSC_RDPS_WindSpeed_AGL-40m_RLatLon0.09_PT081H.grib2 2026-04-28 09:04 668K
20260428T06Z_MSC_RDPS_WindSpeed_AGL-80m_RLatLon0.09_PT081H.grib2 2026-04-28 09:04 538K
20260428T06Z_MSC_RDPS_WindSpeed_IsbL-0001_RLatLon0.09_PT081H.grib2 2026-04-28 09:04 254K
20260428T06Z_MSC_RDPS_WindSpeed_IsbL-0005_RLatLon0.09_PT081H.grib2 2026-04-28 09:04 382K
20260428T06Z_MSC_RDPS_WindSpeed_IsbL-0010_RLatLon0.09_PT081H.grib2 2026-04-28 09:04 304K
20260428T06Z_MSC_RDPS_WindSpeed_IsbL-0020_RLatLon0.09_PT081H.grib2 2026-04-28 09:04 323K
20260428T06Z_MSC_RDPS_WindSpeed_IsbL-0030_RLatLon0.09_PT081H.grib2 2026-04-28 09:04 319K
20260428T06Z_MSC_RDPS_WindSpeed_IsbL-0050_RLatLon0.09_PT081H.grib2 2026-04-28 09:04 346K
20260428T06Z_MSC_RDPS_WindSpeed_IsbL-0100_RLatLon0.09_PT081H.grib2 2026-04-28 09:04 468K
20260428T06Z_MSC_RDPS_WindSpeed_IsbL-0150_RLatLon0.09_PT081H.grib2 2026-04-28 09:04 373K
20260428T06Z_MSC_RDPS_WindSpeed_IsbL-0175_RLatLon0.09_PT081H.grib2 2026-04-28 09:04 419K
20260428T06Z_MSC_RDPS_WindSpeed_IsbL-0200_RLatLon0.09_PT081H.grib2 2026-04-28 09:04 435K
20260428T06Z_MSC_RDPS_WindSpeed_IsbL-0225_RLatLon0.09_PT081H.grib2 2026-04-28 09:04 442K
20260428T06Z_MSC_RDPS_WindSpeed_IsbL-0250_RLatLon0.09_PT081H.grib2 2026-04-28 09:04 445K
20260428T06Z_MSC_RDPS_WindSpeed_IsbL-0275_RLatLon0.09_PT081H.grib2 2026-04-28 09:04 463K
20260428T06Z_MSC_RDPS_WindSpeed_IsbL-0300_RLatLon0.09_PT081H.grib2 2026-04-28 09:04 461K
20260428T06Z_MSC_RDPS_WindSpeed_IsbL-0350_RLatLon0.09_PT081H.grib2 2026-04-28 09:04 470K
20260428T06Z_MSC_RDPS_WindSpeed_IsbL-0400_RLatLon0.09_PT081H.grib2 2026-04-28 09:04 471K
20260428T06Z_MSC_RDPS_WindSpeed_IsbL-0450_RLatLon0.09_PT081H.grib2 2026-04-28 09:04 454K
20260428T06Z_MSC_RDPS_WindSpeed_IsbL-0500_RLatLon0.09_PT081H.grib2 2026-04-28 09:04 454K
20260428T06Z_MSC_RDPS_WindSpeed_IsbL-0550_RLatLon0.09_PT081H.grib2 2026-04-28 09:04 570K
20260428T06Z_MSC_RDPS_WindSpeed_IsbL-0600_RLatLon0.09_PT081H.grib2 2026-04-28 09:04 579K
20260428T06Z_MSC_RDPS_WindSpeed_IsbL-0650_RLatLon0.09_PT081H.grib2 2026-04-28 09:04 601K
20260428T06Z_MSC_RDPS_WindSpeed_IsbL-0700_RLatLon0.09_PT081H.grib2 2026-04-28 09:04 624K
20260428T06Z_MSC_RDPS_WindSpeed_IsbL-0750_RLatLon0.09_PT081H.grib2 2026-04-28 09:04 698K
20260428T06Z_MSC_RDPS_WindSpeed_IsbL-0800_RLatLon0.09_PT081H.grib2 2026-04-28 09:04 746K
20260428T06Z_MSC_RDPS_WindSpeed_IsbL-0850_RLatLon0.09_PT081H.grib2 2026-04-28 09:04 811K
20260428T06Z_MSC_RDPS_WindSpeed_IsbL-0875_RLatLon0.09_PT081H.grib2 2026-04-28 09:04 835K
20260428T06Z_MSC_RDPS_WindSpeed_IsbL-0900_RLatLon0.09_PT081H.grib2 2026-04-28 09:04 849K
20260428T06Z_MSC_RDPS_WindSpeed_IsbL-0925_RLatLon0.09_PT081H.grib2 2026-04-28 09:04 860K
20260428T06Z_MSC_RDPS_WindSpeed_IsbL-0950_RLatLon0.09_PT081H.grib2 2026-04-28 09:04 862K
20260428T06Z_MSC_RDPS_WindSpeed_IsbL-0970_RLatLon0.09_PT081H.grib2 2026-04-28 09:04 857K
20260428T06Z_MSC_RDPS_WindSpeed_IsbL-0985_RLatLon0.09_PT081H.grib2 2026-04-28 09:04 852K
20260428T06Z_MSC_RDPS_WindSpeed_IsbL-1000_RLatLon0.09_PT081H.grib2 2026-04-28 09:04 847K
20260428T06Z_MSC_RDPS_WindSpeed_IsbL-1015_RLatLon0.09_PT081H.grib2 2026-04-28 09:04 838K
20260428T06Z_MSC_RDPS_WindU_AGL-10m_RLatLon0.09_PT081H.grib2 2026-04-28 09:04 431K
20260428T06Z_MSC_RDPS_WindU_AGL-120m_RLatLon0.09_PT081H.grib2 2026-04-28 09:04 536K
20260428T06Z_MSC_RDPS_WindU_AGL-40m_RLatLon0.09_PT081H.grib2 2026-04-28 09:04 536K
20260428T06Z_MSC_RDPS_WindU_AGL-80m_RLatLon0.09_PT081H.grib2 2026-04-28 09:04 536K
20260428T06Z_MSC_RDPS_WindU_IsbL-0001_RLatLon0.09_PT081H.grib2 2026-04-28 09:04 294K
20260428T06Z_MSC_RDPS_WindU_IsbL-0005_RLatLon0.09_PT081H.grib2 2026-04-28 09:04 286K
20260428T06Z_MSC_RDPS_WindU_IsbL-0010_RLatLon0.09_PT081H.grib2 2026-04-28 09:04 295K
20260428T06Z_MSC_RDPS_WindU_IsbL-0020_RLatLon0.09_PT081H.grib2 2026-04-28 09:04 314K
20260428T06Z_MSC_RDPS_WindU_IsbL-0030_RLatLon0.09_PT081H.grib2 2026-04-28 09:04 313K
20260428T06Z_MSC_RDPS_WindU_IsbL-0050_RLatLon0.09_PT081H.grib2 2026-04-28 09:04 342K
20260428T06Z_MSC_RDPS_WindU_IsbL-0100_RLatLon0.09_PT081H.grib2 2026-04-28 09:04 424K
20260428T06Z_MSC_RDPS_WindU_IsbL-0150_RLatLon0.09_PT081H.grib2 2026-04-28 09:04 390K
20260428T06Z_MSC_RDPS_WindU_IsbL-0175_RLatLon0.09_PT081H.grib2 2026-04-28 09:04 412K
20260428T06Z_MSC_RDPS_WindU_IsbL-0200_RLatLon0.09_PT081H.grib2 2026-04-28 09:04 331K
20260428T06Z_MSC_RDPS_WindU_IsbL-0225_RLatLon0.09_PT081H.grib2 2026-04-28 09:04 336K
20260428T06Z_MSC_RDPS_WindU_IsbL-0250_RLatLon0.09_PT081H.grib2 2026-04-28 09:04 337K
20260428T06Z_MSC_RDPS_WindU_IsbL-0275_RLatLon0.09_PT081H.grib2 2026-04-28 09:04 352K
20260428T06Z_MSC_RDPS_WindU_IsbL-0300_RLatLon0.09_PT081H.grib2 2026-04-28 09:04 348K
20260428T06Z_MSC_RDPS_WindU_IsbL-0350_RLatLon0.09_PT081H.grib2 2026-04-28 09:04 355K
20260428T06Z_MSC_RDPS_WindU_IsbL-0400_RLatLon0.09_PT081H.grib2 2026-04-28 09:04 356K
20260428T06Z_MSC_RDPS_WindU_IsbL-0450_RLatLon0.09_PT081H.grib2 2026-04-28 09:04 459K
20260428T06Z_MSC_RDPS_WindU_IsbL-0500_RLatLon0.09_PT081H.grib2 2026-04-28 09:04 460K
20260428T06Z_MSC_RDPS_WindU_IsbL-0550_RLatLon0.09_PT081H.grib2 2026-04-28 09:04 462K
20260428T06Z_MSC_RDPS_WindU_IsbL-0600_RLatLon0.09_PT081H.grib2 2026-04-28 09:04 470K
20260428T06Z_MSC_RDPS_WindU_IsbL-0650_RLatLon0.09_PT081H.grib2 2026-04-28 09:04 487K
20260428T06Z_MSC_RDPS_WindU_IsbL-0700_RLatLon0.09_PT081H.grib2 2026-04-28 09:04 509K
20260428T06Z_MSC_RDPS_WindU_IsbL-0750_RLatLon0.09_PT081H.grib2 2026-04-28 09:04 521K
20260428T06Z_MSC_RDPS_WindU_IsbL-0800_RLatLon0.09_PT081H.grib2 2026-04-28 09:04 563K
20260428T06Z_MSC_RDPS_WindU_IsbL-0850_RLatLon0.09_PT081H.grib2 2026-04-28 09:04 619K
20260428T06Z_MSC_RDPS_WindU_IsbL-0875_RLatLon0.09_PT081H.grib2 2026-04-28 09:04 638K
20260428T06Z_MSC_RDPS_WindU_IsbL-0900_RLatLon0.09_PT081H.grib2 2026-04-28 09:04 648K
20260428T06Z_MSC_RDPS_WindU_IsbL-0925_RLatLon0.09_PT081H.grib2 2026-04-28 09:04 656K
20260428T06Z_MSC_RDPS_WindU_IsbL-0950_RLatLon0.09_PT081H.grib2 2026-04-28 09:04 655K
20260428T06Z_MSC_RDPS_WindU_IsbL-0970_RLatLon0.09_PT081H.grib2 2026-04-28 09:04 653K
20260428T06Z_MSC_RDPS_WindU_IsbL-0985_RLatLon0.09_PT081H.grib2 2026-04-28 09:04 790K
20260428T06Z_MSC_RDPS_WindU_IsbL-1000_RLatLon0.09_PT081H.grib2 2026-04-28 09:04 787K
20260428T06Z_MSC_RDPS_WindU_IsbL-1015_RLatLon0.09_PT081H.grib2 2026-04-28 09:04 827K
20260428T06Z_MSC_RDPS_WindV_AGL-10m_RLatLon0.09_PT081H.grib2 2026-04-28 09:04 430K
20260428T06Z_MSC_RDPS_WindV_AGL-120m_RLatLon0.09_PT081H.grib2 2026-04-28 09:04 532K
20260428T06Z_MSC_RDPS_WindV_AGL-40m_RLatLon0.09_PT081H.grib2 2026-04-28 09:04 532K
20260428T06Z_MSC_RDPS_WindV_AGL-80m_RLatLon0.09_PT081H.grib2 2026-04-28 09:04 532K
20260428T06Z_MSC_RDPS_WindV_IsbL-0001_RLatLon0.09_PT081H.grib2 2026-04-28 09:04 246K
20260428T06Z_MSC_RDPS_WindV_IsbL-0005_RLatLon0.09_PT081H.grib2 2026-04-28 09:04 286K
20260428T06Z_MSC_RDPS_WindV_IsbL-0010_RLatLon0.09_PT081H.grib2 2026-04-28 09:04 299K
20260428T06Z_MSC_RDPS_WindV_IsbL-0020_RLatLon0.09_PT081H.grib2 2026-04-28 09:04 318K
20260428T06Z_MSC_RDPS_WindV_IsbL-0030_RLatLon0.09_PT081H.grib2 2026-04-28 09:04 315K
20260428T06Z_MSC_RDPS_WindV_IsbL-0050_RLatLon0.09_PT081H.grib2 2026-04-28 09:04 342K
20260428T06Z_MSC_RDPS_WindV_IsbL-0100_RLatLon0.09_PT081H.grib2 2026-04-28 09:04 422K
20260428T06Z_MSC_RDPS_WindV_IsbL-0150_RLatLon0.09_PT081H.grib2 2026-04-28 09:04 387K
20260428T06Z_MSC_RDPS_WindV_IsbL-0175_RLatLon0.09_PT081H.grib2 2026-04-28 09:04 410K
20260428T06Z_MSC_RDPS_WindV_IsbL-0200_RLatLon0.09_PT081H.grib2 2026-04-28 09:04 330K
20260428T06Z_MSC_RDPS_WindV_IsbL-0225_RLatLon0.09_PT081H.grib2 2026-04-28 09:04 334K
20260428T06Z_MSC_RDPS_WindV_IsbL-0250_RLatLon0.09_PT081H.grib2 2026-04-28 09:04 334K
20260428T06Z_MSC_RDPS_WindV_IsbL-0275_RLatLon0.09_PT081H.grib2 2026-04-28 09:04 349K
20260428T06Z_MSC_RDPS_WindV_IsbL-0300_RLatLon0.09_PT081H.grib2 2026-04-28 09:04 445K
20260428T06Z_MSC_RDPS_WindV_IsbL-0350_RLatLon0.09_PT081H.grib2 2026-04-28 09:04 453K
20260428T06Z_MSC_RDPS_WindV_IsbL-0400_RLatLon0.09_PT081H.grib2 2026-04-28 09:04 455K
20260428T06Z_MSC_RDPS_WindV_IsbL-0450_RLatLon0.09_PT081H.grib2 2026-04-28 09:04 455K
20260428T06Z_MSC_RDPS_WindV_IsbL-0500_RLatLon0.09_PT081H.grib2 2026-04-28 09:04 457K
20260428T06Z_MSC_RDPS_WindV_IsbL-0550_RLatLon0.09_PT081H.grib2 2026-04-28 09:04 439K
20260428T06Z_MSC_RDPS_WindV_IsbL-0600_RLatLon0.09_PT081H.grib2 2026-04-28 09:04 448K
20260428T06Z_MSC_RDPS_WindV_IsbL-0650_RLatLon0.09_PT081H.grib2 2026-04-28 09:04 467K
20260428T06Z_MSC_RDPS_WindV_IsbL-0700_RLatLon0.09_PT081H.grib2 2026-04-28 09:04 489K
20260428T06Z_MSC_RDPS_WindV_IsbL-0750_RLatLon0.09_PT081H.grib2 2026-04-28 09:04 515K
20260428T06Z_MSC_RDPS_WindV_IsbL-0800_RLatLon0.09_PT081H.grib2 2026-04-28 09:04 556K
20260428T06Z_MSC_RDPS_WindV_IsbL-0850_RLatLon0.09_PT081H.grib2 2026-04-28 09:04 616K
20260428T06Z_MSC_RDPS_WindV_IsbL-0875_RLatLon0.09_PT081H.grib2 2026-04-28 09:04 773K
20260428T06Z_MSC_RDPS_WindV_IsbL-0900_RLatLon0.09_PT081H.grib2 2026-04-28 09:04 786K
20260428T06Z_MSC_RDPS_WindV_IsbL-0925_RLatLon0.09_PT081H.grib2 2026-04-28 09:04 794K
20260428T06Z_MSC_RDPS_WindV_IsbL-0950_RLatLon0.09_PT081H.grib2 2026-04-28 09:04 792K
20260428T06Z_MSC_RDPS_WindV_IsbL-0970_RLatLon0.09_PT081H.grib2 2026-04-28 09:04 790K
20260428T06Z_MSC_RDPS_WindV_IsbL-0985_RLatLon0.09_PT081H.grib2 2026-04-28 09:04 786K
20260428T06Z_MSC_RDPS_WindV_IsbL-1000_RLatLon0.09_PT081H.grib2 2026-04-28 09:04 827K
20260428T06Z_MSC_RDPS_WindV_IsbL-1015_RLatLon0.09_PT081H.grib2 2026-04-28 09:04 821K